Location: Beugnon
(47.6222°N, 3.7850°E)
Time: 12:47:43
(UTC+00:00)

Okean 3 Rocket - Visible Passes

Search period start: 06 August 2020 00:00
Search period end: 16 August 2020 00:00
Orbit: 614 x 645 km, 82.5° (Epoch: 05 August)

Date Brightness Start Highest point End Pass type
(mag) Time Alt. Az. Time Alt. Az. Time Alt. Az.
06 Aug 7.1 20:48:40 10° WNW 20:49:42 11° WNW 20:50:43 10° NW visible
08 Aug 6.3 19:49:03 10° SW 19:52:40 25° WNW 19:56:19 10° NNW visible
09 Aug 6.9 20:11:27 10° W 20:13:47 14° WNW 20:16:08 10° NNW visible
12 Aug 7.3 03:42:49 10° NE 03:44:30 12° ENE 03:46:11 10° E visible
12 Aug 6.8 19:34:51 10° WSW 19:37:54 18° WNW 19:40:59 10° NNW visible
13 Aug 6.7 04:02:14 10° NNE 04:05:40 21° ENE 04:09:05 10° ESE visible
13 Aug 7.5 19:58:40 10° WNW 19:59:06 10° WNW 19:59:32 10° NW visible
